Home   Weather   Chhindwara   Past weeks

Flag for India Past Weather in Chhindwara, Madhya Pradesh, India — Yesterday and Last 2 Weeks

Now
81 °F

Partly cloudy.


Feels Like: 86 °F
Forecast: 72 / 82 °F
Wind: 3 mph from North

Location: Nagpur Sonegaon

Current Time: Oct 1, 2016 at 12:20:52 AM

Latest Report: Sep 30, 2016 at 11:00 PM


Visibility: 2 mi

Pressure: 29.71 "Hg (27.47 "Hg at 687m altitude)

Humidity: 84%

Dew Point: 75 °F

Location of ChhindwaraLocation

Past Weather in Chhindwara — Graph

°F

Chhindwara Temperature Yesterday

Maximum temperature yesterday: 88 °F (at 2:00 PM)
Minimum temperature yesterday: 77 °F (at 2:30 AM)
Average temperature yesterday: 80 °F

High & Low Weather Summary for the Past Weeks

 TemperatureHumidityPressure
High102 °F (Sep 28, 5:30 PM)100% (Sep 25, 9:00 AM)29.83 "Hg (Sep 25, 9:00 AM)
Low75 °F (Sep 29, 5:30 AM)40% (Sep 28, 6:00 PM)29.53 "Hg (Sep 24, 3:00 PM)
Average83 °F81%29.70 "Hg
* Reported Sep 15 10:30 PM — Sep 30 11:00 PM, Chhindwara, Weather by CustomWeather, © 2016

Note: Actual official high and low records may vary slightly from our data, if they occured in-between our weather recording intervals... More about our weather records

Advertising

Chhindwara Weather History for the Previous 24 Hours

Scroll right to see more
 ConditionsComfort  
Time TempWeatherWind HumidityBarometerVisibility
11:00 PM
Fri, Sep 30
81 °FPartly cloudy.3 mph84%29.71 "Hg1 mi
9:30 PM81 °FPartly cloudy.3 mph89%29.71 "Hg1 mi
9:00 PM81 °FPartly cloudy.2 mph89%29.71 "Hg1 mi
8:30 PM81 °FPartly cloudy.No wind89%29.71 "Hg1 mi
8:00 PM81 °FPartly cloudy.2 mph89%29.71 "Hg1 mi
7:30 PM81 °FPartly cloudy.No wind89%29.68 "Hg1 mi
7:00 PM81 °FThundershowers. Partly cloudy.No wind84%29.68 "Hg1 mi
6:30 PM81 °FThunderstorms. Broken clouds.No wind89%29.65 "Hg1 mi
6:00 PM81 °FThunderstorms. Broken clouds.3 mph84%29.62 "Hg1 mi
5:30 PM81 °FBroken clouds.3 mph84%29.62 "Hg2 mi
4:30 PM82 °FThundershowers. Broken clouds.2 mph79%29.62 "Hg1 mi
4:00 PM82 °FThundershowers. Broken clouds.7 mph79%29.62 "Hg1 mi
3:30 PM86 °FThunderstorms. Broken clouds.6 mph70%29.59 "Hg1 mi
2:30 PM88 °FBroken clouds.3 mph70%29.62 "Hg2 mi
2:00 PM88 °FBroken clouds.3 mph70%29.62 "Hg2 mi
1:30 PM86 °FBroken clouds.3 mph75%29.65 "Hg2 mi
12:30 PM84 °FLight rain. Broken clouds.No wind79%29.68 "Hg1 mi
11:30 AM82 °FMore clouds than sun.6 mph84%29.71 "Hg1 mi
10:30 AM81 °FMore clouds than sun.8 mph89%29.74 "Hg1 mi
10:00 AM81 °FMore clouds than sun.5 mph89%29.74 "Hg1 mi
9:30 AM79 °FMore clouds than sun.7 mph94%29.74 "Hg1 mi
9:00 AM79 °FLight rain. More clouds than sun.7 mph94%29.74 "Hg1 mi
8:30 AM79 °FLight rain. More clouds than sun.2 mph89%29.71 "Hg1 mi
8:00 AM79 °FLight rain. Scattered clouds.No wind89%29.71 "Hg1 mi
7:30 AM79 °FLight rain. Broken clouds.No wind89%29.71 "Hg1 mi
7:00 AM79 °FBroken clouds.No wind89%29.68 "Hg2 mi
6:30 AM79 °FPartly cloudy.5 mph89%29.68 "Hg1 mi
6:00 AM77 °FPartly cloudy.5 mph94%29.68 "Hg1 mi
5:30 AM77 °FPassing clouds.5 mph94%29.65 "Hg1 mi
5:00 AM77 °FPassing clouds.5 mph89%29.65 "Hg1 mi
4:30 AM77 °FPartly cloudy.3 mph94%29.65 "Hg1 mi
4:00 AM77 °FPartly cloudy.3 mph94%29.65 "Hg1 mi
3:30 AM77 °FPartly cloudy.5 mph94%29.65 "Hg1 mi
2:30 AM77 °FPartly cloudy.6 mph94%29.65 "Hg1 mi
2:00 AM79 °FPartly cloudy.6 mph89%29.68 "Hg1 mi
1:00 AM79 °FLight rain. Partly cloudy.2 mph89%29.71 "Hg1 mi
12:30 AM79 °FLight rain. Partly cloudy.3 mph89%29.71 "Hg1 mi
Weather by CustomWeather, © 2016

See weather overviewHow to use our weather pages